Location: Beulah
(33.1426°N, 83.0557°W)
Time: 18:47:38
(UTC+00:00)

Envisat - Pass Details

Date: 02 December 2021
Orbit: 764 x 766 km, 98.2° (Epoch: 28 January)

Event Time Altitude Azimuth Distance (km) Brightness Sun altitude
Rises 23:00:37 0° 209° (SSW) 3,216 7.1 -7.7°
Reaches altitude 10° 23:03:55 10° 232° (SW) 2,296 6.9 -8.3°
Maximum altitude 23:06:46 15° 267° (W) 1,970 6.4 -8.9°
Drops below altitude 10° 23:09:37 10° 302° (WNW) 2,304 6.0 -9.4°
Sets 23:12:58 0° 325° (NW) 3,235 6.4 -10.1°
